ARKTIKA-M 2

Last updated on Thu Aug 20 2026 00:02:39 GMT+0000 (Coordinated Universal Time)

1 58584U 23198A 26230.07438780 .00000056 00000+0 00000+0 0 9992 2 58584 63.2129 147.3319 6901614 267.6403 18.7125 2.00593343 19562
UTC large
Height (km)
Speed (km/s)
/
Latitude / Longitude
Inclination (degrees)
Orbital Period (minutes)
Azimuth
Elevation
Range (km)
Doppler Factor

Next 0 passes for location: London (51.5072 / 0.1276)

No passes found over London.
ARKTIKA-M 2